Year,Month,Day,Hour,Minute,Value (Times are PST for temperature in C)
2016,08,22,00,00,14.80
2016,08,22,00,01,14.90
2016,08,22,00,02,14.90
2016,08,22,00,03,14.90
2016,08,22,00,04,15.00
2016,08,22,00,05,15.10
2016,08,22,00,06,15.30
2016,08,22,00,07,15.30
2016,08,22,00,08,15.30
2016,08,22,00,09,15.40
2016,08,22,00,10,15.40
2016,08,22,00,11,15.40
2016,08,22,00,12,15.40
2016,08,22,00,13,15.40
2016,08,22,00,14,15.50
2016,08,22,00,15,15.60
2016,08,22,00,16,15.70
2016,08,22,00,17,15.80
2016,08,22,00,18,15.90
2016,08,22,00,19,16.00
2016,08,22,00,20,16.10
2016,08,22,00,21,16.20
2016,08,22,00,22,16.20
2016,08,22,00,23,16.20
2016,08,22,00,24,16.20
2016,08,22,00,25,16.30
2016,08,22,00,26,16.20
2016,08,22,00,27,16.20
2016,08,22,00,28,16.20
2016,08,22,00,29,16.20
2016,08,22,00,30,16.10
2016,08,22,00,31,16.10
2016,08,22,00,32,16.10
2016,08,22,00,33,16.10
2016,08,22,00,34,16.10
2016,08,22,00,35,16.10
2016,08,22,00,36,16.00
2016,08,22,00,37,16.00
2016,08,22,00,38,16.00
2016,08,22,00,39,16.00
2016,08,22,00,40,16.10
2016,08,22,00,41,16.10
2016,08,22,00,42,16.10
2016,08,22,00,43,16.20
2016,08,22,00,44,16.20
2016,08,22,00,45,16.30
2016,08,22,00,46,16.30
2016,08,22,00,47,16.30
2016,08,22,00,48,16.20
2016,08,22,00,49,16.10
2016,08,22,00,50,16.00
2016,08,22,00,51,15.90
2016,08,22,00,52,15.80
2016,08,22,00,53,15.80
2016,08,22,00,54,15.70
2016,08,22,00,55,15.60
2016,08,22,00,56,15.60
2016,08,22,00,57,15.50
2016,08,22,00,58,15.40
2016,08,22,00,59,15.40
2016,08,22,01,00,15.30
2016,08,22,01,01,15.30
2016,08,22,01,02,15.20
2016,08,22,01,03,15.20
2016,08,22,01,04,15.20
2016,08,22,01,05,15.10
2016,08,22,01,06,15.10
2016,08,22,01,07,15.10
2016,08,22,01,08,15.00
2016,08,22,01,09,15.00
2016,08,22,01,10,15.00
2016,08,22,01,11,15.00
2016,08,22,01,12,15.00
2016,08,22,01,13,15.00
2016,08,22,01,14,15.00
2016,08,22,01,15,15.00
2016,08,22,01,16,15.00
2016,08,22,01,17,15.00
2016,08,22,01,18,15.00
2016,08,22,01,19,14.90
2016,08,22,01,20,14.90
2016,08,22,01,21,14.80
2016,08,22,01,22,14.80
2016,08,22,01,23,14.80
2016,08,22,01,24,14.70
2016,08,22,01,25,14.70
2016,08,22,01,26,14.60
2016,08,22,01,27,14.60
2016,08,22,01,28,14.50
2016,08,22,01,29,14.50
2016,08,22,01,30,14.40
2016,08,22,01,31,14.30
2016,08,22,01,32,14.20
2016,08,22,01,33,14.20
2016,08,22,01,34,14.20
2016,08,22,01,35,14.20
2016,08,22,01,36,14.20
2016,08,22,01,37,14.20
2016,08,22,01,38,14.20
2016,08,22,01,39,14.20
2016,08,22,01,40,14.20
2016,08,22,01,41,14.20
2016,08,22,01,42,14.20
2016,08,22,01,43,14.20
2016,08,22,01,44,14.10
2016,08,22,01,45,14.10
2016,08,22,01,46,14.10
2016,08,22,01,47,14.10
2016,08,22,01,48,14.10
2016,08,22,01,49,14.00
2016,08,22,01,50,14.00
2016,08,22,01,51,13.90
2016,08,22,01,52,13.80
2016,08,22,01,53,13.80
2016,08,22,01,54,13.70
2016,08,22,01,55,13.70
2016,08,22,01,56,13.60
2016,08,22,01,57,13.60
2016,08,22,01,58,13.60
2016,08,22,01,59,13.60
2016,08,22,02,00,13.60
2016,08,22,02,01,13.70
2016,08,22,02,02,13.70
2016,08,22,02,03,13.70
2016,08,22,02,04,13.70
2016,08,22,02,05,13.70
2016,08,22,02,06,13.70
2016,08,22,02,07,13.70
2016,08,22,02,08,13.70
2016,08,22,02,09,13.70
2016,08,22,02,10,13.70
2016,08,22,02,11,13.60
2016,08,22,02,12,13.60
2016,08,22,02,13,13.70
2016,08,22,02,14,13.70
2016,08,22,02,15,13.70
2016,08,22,02,16,13.70
2016,08,22,02,17,13.80
2016,08,22,02,18,14.00
2016,08,22,02,19,14.20
2016,08,22,02,20,14.50
2016,08,22,02,21,14.70
2016,08,22,02,22,14.90
2016,08,22,02,23,15.00
2016,08,22,02,24,15.20
2016,08,22,02,25,15.40
2016,08,22,02,26,15.50
2016,08,22,02,27,15.60
2016,08,22,02,28,15.70
2016,08,22,02,29,15.80
2016,08,22,02,30,15.80
2016,08,22,02,31,15.80
2016,08,22,02,32,15.90
2016,08,22,02,33,16.00
2016,08,22,02,34,16.00
2016,08,22,02,35,16.10
2016,08,22,02,36,16.10
2016,08,22,02,37,16.10
2016,08,22,02,38,16.20
2016,08,22,02,39,16.10
2016,08,22,02,40,16.10
2016,08,22,02,41,16.00
2016,08,22,02,42,15.90
2016,08,22,02,43,15.80
2016,08,22,02,44,15.80
2016,08,22,02,45,15.80
2016,08,22,02,46,15.80
2016,08,22,02,47,15.80
2016,08,22,02,48,15.70
2016,08,22,02,49,15.80
2016,08,22,02,50,15.80
2016,08,22,02,51,15.80
2016,08,22,02,52,15.80
2016,08,22,02,53,15.70
2016,08,22,02,54,15.70
2016,08,22,02,55,15.70
2016,08,22,02,56,15.60
2016,08,22,02,57,15.60
2016,08,22,02,58,15.60
2016,08,22,02,59,15.60
2016,08,22,03,00,15.60
2016,08,22,03,01,15.70
2016,08,22,03,02,15.70
2016,08,22,03,03,15.70
2016,08,22,03,04,15.80
2016,08,22,03,05,15.80
2016,08,22,03,06,15.80
2016,08,22,03,07,15.80
2016,08,22,03,08,15.80
2016,08,22,03,09,15.80
2016,08,22,03,10,15.90
2016,08,22,03,11,15.90
2016,08,22,03,12,16.00
2016,08,22,03,13,16.00
2016,08,22,03,14,16.00
2016,08,22,03,15,16.00
2016,08,22,03,16,16.00
2016,08,22,03,17,16.00
2016,08,22,03,18,16.00
2016,08,22,03,19,16.00
2016,08,22,03,20,16.00
2016,08,22,03,21,16.00
2016,08,22,03,22,16.00
2016,08,22,03,23,15.90
2016,08,22,03,24,15.90
2016,08,22,03,25,15.80
2016,08,22,03,26,15.80
2016,08,22,03,27,15.70
2016,08,22,03,28,15.70
2016,08,22,03,29,15.60
2016,08,22,03,30,15.60
2016,08,22,03,31,15.60
2016,08,22,03,32,15.50
2016,08,22,03,33,15.50
2016,08,22,03,34,15.40
2016,08,22,03,35,15.40
2016,08,22,03,36,15.40
2016,08,22,03,37,15.40
2016,08,22,03,38,15.30
2016,08,22,03,39,15.30
2016,08,22,03,40,15.30
2016,08,22,03,41,15.30
2016,08,22,03,42,15.20
2016,08,22,03,43,15.20
2016,08,22,03,44,15.10
2016,08,22,03,45,15.10
2016,08,22,03,46,15.00
2016,08,22,03,47,15.00
2016,08,22,03,48,14.90
2016,08,22,03,49,14.90
2016,08,22,03,50,14.90
2016,08,22,03,51,14.80
2016,08,22,03,52,14.80
2016,08,22,03,53,14.70
2016,08,22,03,54,14.70
2016,08,22,03,55,14.60
2016,08,22,03,56,14.60
2016,08,22,03,57,14.60
2016,08,22,03,58,14.50
2016,08,22,03,59,14.50
2016,08,22,04,00,14.40
2016,08,22,04,01,14.40
2016,08,22,04,02,14.40
2016,08,22,04,03,14.40
2016,08,22,04,04,14.30
2016,08,22,04,05,14.30
2016,08,22,04,06,14.30
2016,08,22,04,07,14.30
2016,08,22,04,08,14.20
2016,08,22,04,09,14.20
2016,08,22,04,10,14.20
2016,08,22,04,11,14.20
2016,08,22,04,12,14.20
2016,08,22,04,13,14.20
2016,08,22,04,14,14.20
2016,08,22,04,15,14.10
2016,08,22,04,16,14.20
2016,08,22,04,17,14.20
2016,08,22,04,18,14.20
2016,08,22,04,19,14.20
2016,08,22,04,20,14.20
2016,08,22,04,21,14.20
2016,08,22,04,22,14.20
2016,08,22,04,23,14.20
2016,08,22,04,24,14.20
2016,08,22,04,25,14.20
2016,08,22,04,26,14.20
2016,08,22,04,27,14.20
2016,08,22,04,28,14.20
2016,08,22,04,29,14.20
2016,08,22,04,30,14.20
2016,08,22,04,31,14.20
2016,08,22,04,32,14.30
2016,08,22,04,33,14.30
2016,08,22,04,34,14.30
2016,08,22,04,35,14.20
2016,08,22,04,36,14.20
2016,08,22,04,37,14.20
2016,08,22,04,38,14.20
2016,08,22,04,39,14.20
2016,08,22,04,40,14.20
2016,08,22,04,41,14.20
2016,08,22,04,42,14.10
2016,08,22,04,43,14.10
2016,08,22,04,44,14.10
2016,08,22,04,45,14.10
2016,08,22,04,46,14.10
2016,08,22,04,47,14.10
2016,08,22,04,48,14.10
2016,08,22,04,49,14.10
2016,08,22,04,50,14.10
2016,08,22,04,51,14.10
2016,08,22,04,52,14.10
2016,08,22,04,53,14.10
2016,08,22,04,54,14.10
2016,08,22,04,55,14.10
2016,08,22,04,56,14.10
2016,08,22,04,57,14.00
2016,08,22,04,58,14.00
2016,08,22,04,59,14.00
2016,08,22,05,00,14.00
2016,08,22,05,01,14.00
2016,08,22,05,02,14.00
2016,08,22,05,03,14.00
2016,08,22,05,04,14.00
2016,08,22,05,05,14.00
2016,08,22,05,06,14.00
2016,08,22,05,07,14.00
2016,08,22,05,08,14.00
2016,08,22,05,09,14.00
2016,08,22,05,10,13.90
2016,08,22,05,11,13.90
2016,08,22,05,12,13.90
2016,08,22,05,13,13.90
2016,08,22,05,14,13.90
2016,08,22,05,15,13.90
2016,08,22,05,16,13.90
2016,08,22,05,17,13.90
2016,08,22,05,18,13.90
2016,08,22,05,19,13.90
2016,08,22,05,20,13.90
2016,08,22,05,21,13.90
2016,08,22,05,22,13.90
2016,08,22,05,23,13.90
2016,08,22,05,24,13.90
2016,08,22,05,25,13.90
2016,08,22,05,26,13.90
2016,08,22,05,27,13.90
2016,08,22,05,28,13.90
2016,08,22,05,29,13.90
2016,08,22,05,30,13.90
2016,08,22,05,31,13.80
2016,08,22,05,32,13.80
2016,08,22,05,33,13.80
2016,08,22,05,34,13.80
2016,08,22,05,35,13.80
2016,08,22,05,36,13.80
2016,08,22,05,37,13.80
2016,08,22,05,38,13.80
2016,08,22,05,39,13.80
2016,08,22,05,40,13.80
2016,08,22,05,41,13.80
2016,08,22,05,42,13.80
2016,08,22,05,43,13.80
2016,08,22,05,44,13.80
2016,08,22,05,45,13.80
2016,08,22,05,46,13.90
2016,08,22,05,47,13.90
2016,08,22,05,48,13.90
2016,08,22,05,49,13.90
2016,08,22,05,50,13.90
2016,08,22,05,51,14.00
2016,08,22,05,52,14.10
2016,08,22,05,53,14.20
2016,08,22,05,54,14.40
2016,08,22,05,55,14.50
2016,08,22,05,56,14.70
2016,08,22,05,57,14.80
2016,08,22,05,58,14.80
2016,08,22,05,59,14.90
2016,08,22,06,00,14.90
2016,08,22,06,01,15.00
2016,08,22,06,02,15.00
2016,08,22,06,03,15.00
2016,08,22,06,04,15.10
2016,08,22,06,05,15.00
2016,08,22,06,06,15.00
2016,08,22,06,07,15.00
2016,08,22,06,08,14.90
2016,08,22,06,09,14.90
2016,08,22,06,10,14.90
2016,08,22,06,11,14.90
2016,08,22,06,12,14.90
2016,08,22,06,13,14.90
2016,08,22,06,14,14.80
2016,08,22,06,15,14.80
2016,08,22,06,16,14.80
2016,08,22,06,17,14.80
2016,08,22,06,18,14.80
2016,08,22,06,19,14.80
2016,08,22,06,20,14.80
2016,08,22,06,21,14.80
2016,08,22,06,22,14.80
2016,08,22,06,23,14.80
2016,08,22,06,24,14.80
2016,08,22,06,25,14.80
2016,08,22,06,26,14.80
2016,08,22,06,27,14.80
2016,08,22,06,28,14.90
2016,08,22,06,29,14.90
2016,08,22,06,30,15.00
2016,08,22,06,31,15.00
2016,08,22,06,32,15.00
2016,08,22,06,33,15.00
2016,08,22,06,34,15.00
2016,08,22,06,35,15.00
2016,08,22,06,36,15.10
2016,08,22,06,37,15.10
2016,08,22,06,38,15.20
2016,08,22,06,39,15.20
2016,08,22,06,40,15.30
2016,08,22,06,41,15.30
2016,08,22,06,42,15.30
2016,08,22,06,43,15.40
2016,08,22,06,44,15.50
2016,08,22,06,45,15.50
2016,08,22,06,46,15.60
2016,08,22,06,47,15.70
2016,08,22,06,48,15.70
2016,08,22,06,49,15.70
2016,08,22,06,50,15.70
2016,08,22,06,51,15.70
2016,08,22,06,52,15.80
2016,08,22,06,53,15.80
2016,08,22,06,54,15.80
2016,08,22,06,55,15.80
2016,08,22,06,56,15.80
2016,08,22,06,57,15.80
2016,08,22,06,58,15.80
2016,08,22,06,59,15.90
2016,08,22,07,00,16.00
2016,08,22,07,01,16.10
2016,08,22,07,02,16.20
2016,08,22,07,03,16.20
2016,08,22,07,04,16.30
2016,08,22,07,05,16.30
2016,08,22,07,06,16.30
2016,08,22,07,07,16.40
2016,08,22,07,08,16.40
2016,08,22,07,09,16.50
2016,08,22,07,10,16.50
2016,08,22,07,11,16.60
2016,08,22,07,12,16.60
2016,08,22,07,13,16.70
2016,08,22,07,14,16.70
2016,08,22,07,15,16.70
2016,08,22,07,16,16.70
2016,08,22,07,17,16.70
2016,08,22,07,18,16.70
2016,08,22,07,19,16.70
2016,08,22,07,20,16.70
2016,08,22,07,21,16.80
2016,08,22,07,22,16.80
2016,08,22,07,23,16.80
2016,08,22,07,24,16.80
2016,08,22,07,25,16.80
2016,08,22,07,26,16.90
2016,08,22,07,27,16.90
2016,08,22,07,28,16.90
2016,08,22,07,29,17.00
2016,08,22,07,30,17.00
2016,08,22,07,31,17.00
2016,08,22,07,32,17.10
2016,08,22,07,33,17.10
2016,08,22,07,34,17.10
2016,08,22,07,35,17.10
2016,08,22,07,36,17.10
2016,08,22,07,37,17.10
2016,08,22,07,38,17.20
2016,08,22,07,39,17.20
2016,08,22,07,40,17.20
2016,08,22,07,41,17.30
2016,08,22,07,42,17.30
2016,08,22,07,43,17.40
2016,08,22,07,44,17.40
2016,08,22,07,45,17.50
2016,08,22,07,46,17.50
2016,08,22,07,47,17.50
2016,08,22,07,48,17.60
2016,08,22,07,49,17.60
2016,08,22,07,50,17.60
2016,08,22,07,51,17.60
2016,08,22,07,52,17.60
2016,08,22,07,53,17.70
2016,08,22,07,54,17.70
2016,08,22,07,55,17.70
2016,08,22,07,56,17.70
2016,08,22,07,57,17.70
2016,08,22,07,58,17.70
2016,08,22,07,59,17.80
2016,08,22,08,00,17.80
2016,08,22,08,01,17.80
2016,08,22,08,02,17.80
2016,08,22,08,03,17.90
2016,08,22,08,04,17.90
2016,08,22,08,05,17.90
2016,08,22,08,06,17.90
2016,08,22,08,07,17.90
2016,08,22,08,08,17.90
2016,08,22,08,09,17.90
2016,08,22,08,10,17.90
2016,08,22,08,11,17.90
2016,08,22,08,12,17.90
2016,08,22,08,13,17.90
2016,08,22,08,14,17.90
2016,08,22,08,15,18.00
2016,08,22,08,16,18.00
2016,08,22,08,17,18.00
2016,08,22,08,18,18.00
2016,08,22,08,19,18.10
2016,08,22,08,20,18.10
2016,08,22,08,21,18.10
2016,08,22,08,22,18.10
2016,08,22,08,23,18.10
2016,08,22,08,24,18.10
2016,08,22,08,25,18.20
2016,08,22,08,26,18.20
2016,08,22,08,27,18.20
2016,08,22,08,28,18.20
2016,08,22,08,29,18.20
2016,08,22,08,30,18.20
2016,08,22,08,31,18.20
2016,08,22,08,32,18.20
2016,08,22,08,33,18.30
2016,08,22,08,34,18.30
2016,08,22,08,35,18.20
2016,08,22,08,36,18.20
2016,08,22,08,37,18.10
2016,08,22,08,38,18.10
2016,08,22,08,39,18.10
2016,08,22,08,40,18.10
2016,08,22,08,41,18.20
2016,08,22,08,42,18.20
2016,08,22,08,43,18.30
2016,08,22,08,44,18.30
2016,08,22,08,45,18.40
2016,08,22,08,46,18.40
2016,08,22,08,47,18.40
2016,08,22,08,48,18.40
2016,08,22,08,49,18.40
2016,08,22,08,50,18.40
2016,08,22,08,51,18.50
2016,08,22,08,52,18.50
2016,08,22,08,53,18.50
2016,08,22,08,54,18.50
2016,08,22,08,55,18.50
2016,08,22,08,56,18.40
2016,08,22,08,57,18.30
2016,08,22,08,58,18.30
2016,08,22,08,59,18.30
2016,08,22,09,00,18.40
2016,08,22,09,01,18.50
2016,08,22,09,02,18.50
2016,08,22,09,03,18.60
2016,08,22,09,04,18.70
2016,08,22,09,05,18.70
2016,08,22,09,06,18.80
2016,08,22,09,07,18.80
2016,08,22,09,08,18.80
2016,08,22,09,09,18.80
2016,08,22,09,10,18.70
2016,08,22,09,11,18.60
2016,08,22,09,12,18.50
2016,08,22,09,13,18.40
2016,08,22,09,14,18.20
2016,08,22,09,15,18.00
2016,08,22,09,16,17.90
2016,08,22,09,17,17.70
2016,08,22,09,18,17.60
2016,08,22,09,19,17.40
2016,08,22,09,20,17.30
2016,08,22,09,21,17.10
2016,08,22,09,22,17.00
2016,08,22,09,23,16.90
2016,08,22,09,24,16.90
2016,08,22,09,25,16.80
2016,08,22,09,26,16.70
2016,08,22,09,27,16.70
2016,08,22,09,28,16.60
2016,08,22,09,29,16.50
2016,08,22,09,30,16.40
2016,08,22,09,31,16.40
2016,08,22,09,32,16.30
2016,08,22,09,33,16.20
2016,08,22,09,34,16.20
2016,08,22,09,35,16.20
2016,08,22,09,36,16.20
2016,08,22,09,37,16.20
2016,08,22,09,38,16.30
2016,08,22,09,39,16.30
2016,08,22,09,40,16.30
2016,08,22,09,41,16.40
2016,08,22,09,42,16.50
2016,08,22,09,43,16.60
2016,08,22,09,44,16.80
2016,08,22,09,45,16.90
2016,08,22,09,46,17.00
2016,08,22,09,47,17.10
2016,08,22,09,48,17.20
2016,08,22,09,49,17.30
2016,08,22,09,50,17.40
2016,08,22,09,51,17.60
2016,08,22,09,52,17.70
2016,08,22,09,53,17.80
2016,08,22,09,54,18.00
2016,08,22,09,55,18.10
2016,08,22,09,56,18.20
2016,08,22,09,57,18.20
2016,08,22,09,58,18.10
2016,08,22,09,59,18.10
2016,08,22,10,00,18.00
2016,08,22,10,01,17.90
2016,08,22,10,02,17.90
2016,08,22,10,03,17.90
2016,08,22,10,04,17.80
2016,08,22,10,05,17.80
2016,08,22,10,06,17.80
2016,08,22,10,07,17.80
2016,08,22,10,08,17.80
2016,08,22,10,09,17.80
2016,08,22,10,10,17.80
2016,08,22,10,11,17.90
2016,08,22,10,12,17.90
2016,08,22,10,13,17.90
2016,08,22,10,14,17.90
2016,08,22,10,15,17.90
2016,08,22,10,16,17.90
2016,08,22,10,17,18.00
2016,08,22,10,18,18.10
2016,08,22,10,19,18.10
2016,08,22,10,20,18.10
2016,08,22,10,21,18.10
2016,08,22,10,22,18.10
2016,08,22,10,23,18.10
2016,08,22,10,24,18.10
2016,08,22,10,25,18.00
2016,08,22,10,26,18.00
2016,08,22,10,27,17.90
2016,08,22,10,28,17.90
2016,08,22,10,29,17.80
2016,08,22,10,30,17.80
2016,08,22,10,31,17.80
2016,08,22,10,32,17.70
2016,08,22,10,33,17.70
2016,08,22,10,34,17.70
2016,08,22,10,35,17.70
2016,08,22,10,36,17.70
2016,08,22,10,37,17.70
2016,08,22,10,38,17.70
2016,08,22,10,39,17.80
2016,08,22,10,40,17.90
2016,08,22,10,41,17.90
2016,08,22,10,42,18.00
2016,08,22,10,43,18.20
2016,08,22,10,44,18.30
2016,08,22,10,45,18.30
2016,08,22,10,46,18.40
2016,08,22,10,47,18.50
2016,08,22,10,48,18.60
2016,08,22,10,49,18.50
2016,08,22,10,50,18.50
2016,08,22,10,51,18.40
2016,08,22,10,52,18.50
2016,08,22,10,53,18.50
2016,08,22,10,54,18.60
2016,08,22,10,55,18.70
2016,08,22,10,56,18.70
2016,08,22,10,57,18.70
2016,08,22,10,58,18.70
2016,08,22,10,59,18.70
2016,08,22,11,00,18.70
2016,08,22,11,01,18.70
2016,08,22,11,02,18.70
2016,08,22,11,03,18.70
2016,08,22,11,04,18.70
2016,08,22,11,05,18.70
2016,08,22,11,06,18.80
2016,08,22,11,07,18.90
2016,08,22,11,08,19.00
2016,08,22,11,09,19.10
2016,08,22,11,10,19.20
2016,08,22,11,11,19.20
2016,08,22,11,12,19.20
2016,08,22,11,13,19.20
2016,08,22,11,14,19.30
2016,08,22,11,15,19.30
2016,08,22,11,16,19.20
2016,08,22,11,17,19.20
2016,08,22,11,18,19.20
2016,08,22,11,19,19.20
2016,08,22,11,20,19.20
2016,08,22,11,21,19.10
2016,08,22,11,22,19.10
2016,08,22,11,23,19.10
2016,08,22,11,24,19.10
2016,08,22,11,25,19.00
2016,08,22,11,26,18.90
2016,08,22,11,27,18.90
2016,08,22,11,28,18.80
2016,08,22,11,29,18.80
2016,08,22,11,30,18.80
2016,08,22,11,31,18.80
2016,08,22,11,32,18.90
2016,08,22,11,33,18.90
2016,08,22,11,34,19.00
2016,08,22,11,35,19.10
2016,08,22,11,36,19.10
2016,08,22,11,37,19.20
2016,08,22,11,38,19.30
2016,08,22,11,39,19.30
2016,08,22,11,40,19.30
2016,08,22,11,41,19.30
2016,08,22,11,42,19.30
2016,08,22,11,43,19.30
2016,08,22,11,44,19.40
2016,08,22,11,45,19.40
2016,08,22,11,46,19.40
2016,08,22,11,47,19.50
2016,08,22,11,48,19.50
2016,08,22,11,49,19.50
2016,08,22,11,50,19.60
2016,08,22,11,51,19.60
2016,08,22,11,52,19.60
2016,08,22,11,53,19.70
2016,08,22,11,54,19.70
2016,08,22,11,55,19.80
2016,08,22,11,56,19.90
2016,08,22,11,57,19.90
2016,08,22,11,58,19.90
2016,08,22,11,59,19.90
2016,08,22,12,00,19.90
2016,08,22,12,01,19.90
2016,08,22,12,02,19.90
2016,08,22,12,03,19.90
2016,08,22,12,04,19.90
2016,08,22,12,05,19.90
2016,08,22,12,06,19.90
2016,08,22,12,07,19.80
2016,08,22,12,08,19.80
2016,08,22,12,09,19.90
2016,08,22,12,10,19.90
2016,08,22,12,11,19.90
2016,08,22,12,12,19.90
2016,08,22,12,13,20.00
2016,08,22,12,14,20.00
2016,08,22,12,15,20.00
2016,08,22,12,16,20.00
2016,08,22,12,17,20.00
2016,08,22,12,18,20.00
2016,08,22,12,19,20.10
2016,08,22,12,20,20.10
2016,08,22,12,21,20.10
2016,08,22,12,22,20.20
2016,08,22,12,23,20.20
2016,08,22,12,24,20.20
2016,08,22,12,25,20.30
2016,08,22,12,26,20.30
2016,08,22,12,27,20.30
2016,08,22,12,28,20.30
2016,08,22,12,29,20.30
2016,08,22,12,30,20.30
2016,08,22,12,31,20.30
2016,08,22,12,32,20.20
2016,08,22,12,33,20.10
2016,08,22,12,34,20.10
2016,08,22,12,35,20.00
2016,08,22,12,36,20.00
2016,08,22,12,37,20.10
2016,08,22,12,38,20.10
2016,08,22,12,39,20.20
2016,08,22,12,40,20.30
2016,08,22,12,41,20.40
2016,08,22,12,42,20.40
2016,08,22,12,43,20.40
2016,08,22,12,44,20.40
2016,08,22,12,45,20.40
2016,08,22,12,46,20.30
2016,08,22,12,47,20.30
2016,08,22,12,48,20.40
2016,08,22,12,49,20.30
2016,08,22,12,50,20.30
2016,08,22,12,51,20.30
2016,08,22,12,52,20.30
2016,08,22,12,53,20.40
2016,08,22,12,54,20.40
2016,08,22,12,55,20.50
2016,08,22,12,56,20.60
2016,08,22,12,57,20.70
2016,08,22,12,58,20.70
2016,08,22,12,59,20.80
2016,08,22,13,00,20.80
2016,08,22,13,01,20.80
2016,08,22,13,02,20.80
2016,08,22,13,03,20.80
2016,08,22,13,04,20.80
2016,08,22,13,05,20.90
2016,08,22,13,06,21.00
2016,08,22,13,07,21.00
2016,08,22,13,08,21.10
2016,08,22,13,09,21.10
2016,08,22,13,10,20.90
2016,08,22,13,11,20.80
2016,08,22,13,12,20.70
2016,08,22,13,13,20.60
2016,08,22,13,14,20.60
2016,08,22,13,15,20.60
2016,08,22,13,16,20.50
2016,08,22,13,17,20.50
2016,08,22,13,18,20.50
2016,08,22,13,19,20.50
2016,08,22,13,20,20.50
2016,08,22,13,21,20.50
2016,08,22,13,22,20.40
2016,08,22,13,23,20.40
2016,08,22,13,24,20.40
2016,08,22,13,25,20.40
2016,08,22,13,26,20.50
2016,08,22,13,27,20.50
2016,08,22,13,28,20.60
2016,08,22,13,29,20.60
2016,08,22,13,30,20.60
2016,08,22,13,31,20.60
2016,08,22,13,32,20.70
2016,08,22,13,33,20.70
2016,08,22,13,34,20.80
2016,08,22,13,35,20.90
2016,08,22,13,36,21.00
2016,08,22,13,37,21.10
2016,08,22,13,38,21.20
2016,08,22,13,39,21.30
2016,08,22,13,40,21.30
2016,08,22,13,41,21.30
2016,08,22,13,42,21.30
2016,08,22,13,43,21.10
2016,08,22,13,44,21.00
2016,08,22,13,45,20.90
2016,08,22,13,46,20.90
2016,08,22,13,47,20.80
2016,08,22,13,48,20.90
2016,08,22,13,49,20.90
2016,08,22,13,50,21.00
2016,08,22,13,51,21.10
2016,08,22,13,52,21.20
2016,08,22,13,53,21.20
2016,08,22,13,54,21.40
2016,08,22,13,55,21.50
2016,08,22,13,56,21.70
2016,08,22,13,57,21.80
2016,08,22,13,58,21.90
2016,08,22,13,59,21.90
2016,08,22,14,00,22.00
2016,08,22,14,01,22.00
2016,08,22,14,02,22.10
2016,08,22,14,03,22.10
2016,08,22,14,04,22.10
2016,08,22,14,05,22.00
2016,08,22,14,06,21.90
2016,08,22,14,07,21.90
2016,08,22,14,08,21.90
2016,08,22,14,09,21.90
2016,08,22,14,10,21.90
2016,08,22,14,11,21.90
2016,08,22,14,12,21.90
2016,08,22,14,13,21.90
2016,08,22,14,14,21.90
2016,08,22,14,15,22.00
2016,08,22,14,16,22.10
2016,08,22,14,17,22.10
2016,08,22,14,18,22.20
2016,08,22,14,19,22.30
2016,08,22,14,20,22.30
2016,08,22,14,21,22.40
2016,08,22,14,22,22.40
2016,08,22,14,23,22.40
2016,08,22,14,24,22.40
2016,08,22,14,25,22.50
2016,08,22,14,26,22.60
2016,08,22,14,27,22.60
2016,08,22,14,28,22.60
2016,08,22,14,29,22.60
2016,08,22,14,30,22.60
2016,08,22,14,31,22.70
2016,08,22,14,32,22.70
2016,08,22,14,33,22.70
2016,08,22,14,34,22.60
2016,08,22,14,35,22.40
2016,08,22,14,36,22.30
2016,08,22,14,37,22.30
2016,08,22,14,38,22.20
2016,08,22,14,39,22.20
2016,08,22,14,40,22.20
2016,08,22,14,41,22.20
2016,08,22,14,42,22.10
2016,08,22,14,43,22.10
2016,08,22,14,44,22.10
2016,08,22,14,45,22.20
2016,08,22,14,46,22.20
2016,08,22,14,47,22.30
2016,08,22,14,48,22.40
2016,08,22,14,49,22.50
2016,08,22,14,50,22.50
2016,08,22,14,51,22.50
2016,08,22,14,52,22.40
2016,08,22,14,53,22.40
2016,08,22,14,54,22.50
2016,08,22,14,55,22.50
2016,08,22,14,56,22.50
2016,08,22,14,57,22.60
2016,08,22,14,58,22.60
2016,08,22,14,59,22.70
2016,08,22,15,00,22.70
2016,08,22,15,01,22.70
2016,08,22,15,02,22.80
2016,08,22,15,03,22.70
2016,08,22,15,04,22.70
2016,08,22,15,05,22.70
2016,08,22,15,06,22.70
2016,08,22,15,07,22.70
2016,08,22,15,08,22.70
2016,08,22,15,09,22.70
2016,08,22,15,10,22.70
2016,08,22,15,11,22.70
2016,08,22,15,12,22.70
2016,08,22,15,13,22.80
2016,08,22,15,14,22.80
2016,08,22,15,15,22.90
2016,08,22,15,16,22.90
2016,08,22,15,17,22.90
2016,08,22,15,18,22.80
2016,08,22,15,19,22.70
2016,08,22,15,20,22.50
2016,08,22,15,21,22.40
2016,08,22,15,22,22.30
2016,08,22,15,23,22.20
2016,08,22,15,24,22.20
2016,08,22,15,25,22.20
2016,08,22,15,26,22.20
2016,08,22,15,27,22.20
2016,08,22,15,28,22.20
2016,08,22,15,29,22.20
2016,08,22,15,30,22.20
2016,08,22,15,31,22.20
2016,08,22,15,32,22.20
2016,08,22,15,33,22.20
2016,08,22,15,34,22.30
2016,08,22,15,35,22.30
2016,08,22,15,36,22.30
2016,08,22,15,37,22.20
2016,08,22,15,38,22.20
2016,08,22,15,39,22.20
2016,08,22,15,40,22.30
2016,08,22,15,41,22.30
2016,08,22,15,42,22.30
2016,08,22,15,43,22.30
2016,08,22,15,44,22.30
2016,08,22,15,45,22.40
2016,08,22,15,46,22.40
2016,08,22,15,47,22.40
2016,08,22,15,48,22.40
2016,08,22,15,49,22.40
2016,08,22,15,50,22.30
2016,08,22,15,51,22.30
2016,08,22,15,52,22.20
2016,08,22,15,53,22.10
2016,08,22,15,54,22.10
2016,08,22,15,55,22.10
2016,08,22,15,56,22.10
2016,08,22,15,57,22.10
2016,08,22,15,58,22.00
2016,08,22,15,59,22.00
2016,08,22,16,00,22.00
2016,08,22,16,01,21.90
2016,08,22,16,02,21.90
2016,08,22,16,03,22.00
2016,08,22,16,04,22.00
2016,08,22,16,05,22.10
2016,08,22,16,06,22.10
2016,08,22,16,07,22.20
2016,08,22,16,08,22.20
2016,08,22,16,09,22.20
2016,08,22,16,10,22.20
2016,08,22,16,11,22.10
2016,08,22,16,12,22.10
2016,08,22,16,13,22.10
2016,08,22,16,14,22.10
2016,08,22,16,15,22.00
2016,08,22,16,16,22.00
2016,08,22,16,17,22.00
2016,08,22,16,18,21.90
2016,08,22,16,19,22.00
2016,08,22,16,20,22.00
2016,08,22,16,21,22.00
2016,08,22,16,22,22.10
2016,08,22,16,23,22.10
2016,08,22,16,24,22.10
2016,08,22,16,25,22.10
2016,08,22,16,26,22.20
2016,08,22,16,27,22.20
2016,08,22,16,28,22.20
2016,08,22,16,29,22.20
2016,08,22,16,30,22.20
2016,08,22,16,31,22.20
2016,08,22,16,32,22.30
2016,08,22,16,33,22.30
2016,08,22,16,34,22.20
2016,08,22,16,35,22.20
2016,08,22,16,36,22.20
2016,08,22,16,37,22.20
2016,08,22,16,38,22.20
2016,08,22,16,39,22.20
2016,08,22,16,40,22.20
2016,08,22,16,41,22.20
2016,08,22,16,42,22.20
2016,08,22,16,43,22.20
2016,08,22,16,44,22.20
2016,08,22,16,45,22.20
2016,08,22,16,46,22.30
2016,08,22,16,47,22.30
2016,08,22,16,48,22.20
2016,08,22,16,49,22.20
2016,08,22,16,50,22.20
2016,08,22,16,51,22.20
2016,08,22,16,52,22.10
2016,08,22,16,53,22.00
2016,08,22,16,54,22.00
2016,08,22,16,55,21.90
2016,08,22,16,56,21.90
2016,08,22,16,57,21.90
2016,08,22,16,58,21.90
2016,08,22,16,59,21.80
2016,08,22,17,00,21.80
2016,08,22,17,01,21.70
2016,08,22,17,02,21.70
2016,08,22,17,03,21.70
2016,08,22,17,04,21.70
2016,08,22,17,05,21.70
2016,08,22,17,06,21.80
2016,08,22,17,07,21.80
2016,08,22,17,08,21.80
2016,08,22,17,09,21.80
2016,08,22,17,10,21.90
2016,08,22,17,11,21.90
2016,08,22,17,12,21.90
2016,08,22,17,13,21.90
2016,08,22,17,14,21.90
2016,08,22,17,15,22.00
2016,08,22,17,16,22.00
2016,08,22,17,17,22.00
2016,08,22,17,18,21.90
2016,08,22,17,19,21.90